Location: Unspecified
(0.0000°N, 0.0000°E)
Time: 22:52:13
(UTC+00:00)

ISS - Pass Details

Date: 12 April 2026
Orbit: 416 x 425 km, 51.6° (Epoch: 18 April)

Event Time Altitude Azimuth Distance (km) Brightness Sun altitude
Exits shadow 04:47:14 37° 323° (NW) 665 -3.0 -18.2°
Drops below altitude 10° 04:50:00 10° 16° (NNE) 1,485 -0.7 -17.5°
Sets 04:52:10 0° 24° (NNE) 2,347 0.5 -17.0°
